RH
21 20 18 17 15 14 13 11 10 9 8 8 8 8 8 7 7 6 6 6 5 5 5 5 5 5 5 5 6 7 7 7 6 5 5 5 6 7 11 16 17 17 17 15 13 11 10 9 9 10 15 22 20 20 27 30 30 27 19 14 17 20 22 29 31 31 32 34 43 53 54 50 52 54 55 56 57 57 58 62 66 72 72 69 68 68 76 83
23 21 20 19 18 16 15 14 12 11 9 9 9 8 8 7 6 5 5 5 4 5 4 4 5 4 5 4 4 4 4 4 4 4 4 4 5 7 12 16 15 16 16 13 12 11 11 9 8 10 13 15 15 20 25 27 27 22 14 14 19 21 22 29 32 35 37 37 43 52 54 52 50 50 53 52 52 53 56 62 66 71 71 68 71 73 76 79
25 23 21 20 19 19 17 16 14 13 12 11 11 10 10 9 7 6 5 5 4 5 5 5 5 5 5 4 4 4 4 7 10 12 10 5 4 7 12 14 14 15 15 13 12 11 11 10 10 12 13 12 14 18 20 23 24 18 14 15 17 20 22 29 37 40 44 45 45 49 54 54 52 51 50 48 49 50 53 57 61 68 70 67 70 73 74 75
22 24 23 21 20 19 19 18 17 16 15 14 13 13 13 12 9 8 6 5 5 5 5 5 5 5 4 4 4 4 10 15 17 18 15 7 4 7 10 12 14 15 14 13 13 12 11 12 13 14 13 11 13 16 15 20 22 16 14 15 16 18 20 28 38 43 47 49 46 48 53 53 54 54 48 46 47 46 47 52 55 64 69 65 66 69 71 72
13 18 21 22 22 20 19 18 18 17 17 16 16 15 15 14 11 9 7 5 5 4 5 5 5 4 3 4 3 7 17 18 17 20 18 9 4 6 9 12 15 14 13 12 12 12 12 13 13 12 12 11 12 13 13 17 21 16 14 16 16 17 20 26 36 44 48 52 50 48 49 50 54 54 47 43 42 40 42 47 51 61 65 61 63 65 67 69
7 10 13 18 21 21 20 19 18 18 17 17 17 16 16 15 13 11 8 6 5 4 5 5 4 4 3 3 4 11 19 18 18 23 20 12 5 5 8 12 14 13 12 11 12 11 11 12 11 10 11 10 11 12 12 16 20 16 13 16 17 17 19 25 38 46 46 49 50 49 49 48 50 48 46 44 41 40 43 46 49 57 61 59 62 62 62 64
8 7 7 10 13 17 20 20 19 18 17 18 17 17 17 16 14 12 10 7 5 5 5 5 4 4 3 4 10 16 19 21 22 23 22 15 6 4 7 10 11 11 9 10 11 10 11 11 10 10 9 9 10 12 13 16 18 15 12 16 19 19 21 27 39 48 46 47 51 54 52 49 46 43 45 43 39 42 46 48 51 55 58 59 61 60 60 61
8 8 7 7 7 10 14 17 19 19 18 18 18 17 17 16 15 13 11 7 6 5 5 5 3 4 2 4 13 18 19 24 23 20 21 16 7 4 6 7 8 8 7 9 10 10 11 10 10 10 9 9 10 10 13 15 15 12 10 14 21 22 24 30 40 50 51 53 58 55 48 49 48 44 43 38 36 42 47 48 50 55 58 58 60 59 60 62
9 8 8 7 7 7 8 11 15 17 19 19 18 18 17 17 15 14 11 8 6 5 5 5 3 4 3 5 15 19 20 23 19 14 14 13 7 4 5 6 6 6 7 11 11 10 11 10 11 11 10 10 9 9 10 11 11 10 10 13 21 24 28 34 38 48 53 54 59 53 46 49 51 46 40 35 35 42 47 48 50 56 58 58 59 59 60 62
9 8 8 8 7 6 6 7 9 13 17 19 19 18 17 16 15 14 12 8 6 5 5 4 3 4 3 8 17 20 22 22 15 9 9 11 7 4 6 5 6 7 9 12 11 10 11 10 11 11 11 10 10 10 8 9 9 10 12 15 22 26 32 36 35 43 48 52 56 50 43 48 53 46 35 34 38 42 46 47 51 56 57 58 60 60 59 61
9 8 8 8 7 7 6 6 7 9 14 17 19 18 17 16 16 14 11 8 6 5 5 4 4 3 2 10 17 18 21 21 15 9 6 8 7 4 6 4 5 9 10 11 10 11 11 11 12 11 11 10 9 10 8 10 10 12 15 18 23 26 32 37 37 41 42 46 53 48 43 48 55 46 34 35 39 41 43 46 51 54 55 59 60 60 61 60
8 8 8 8 8 7 6 6 6 7 11 16 19 18 17 17 16 14 11 8 6 5 4 3 4 2 2 9 14 18 22 20 18 15 7 6 5 4 5 4 5 9 10 10 11 11 11 11 12 11 10 10 9 8 9 10 12 15 15 15 21 25 33 39 40 42 41 42 50 50 43 43 48 43 35 36 38 39 41 43 48 52 54 58 59 61 61 60
8 7 8 8 8 7 6 5 5 7 11 16 18 18 18 17 16 13 10 8 6 5 3 3 3 2 4 10 13 18 23 20 18 18 13 7 4 4 4 3 7 13 12 11 11 11 11 13 13 11 11 10 8 8 9 10 12 14 12 11 13 18 29 39 43 44 42 41 49 48 30 24 31 34 35 38 40 39 38 41 44 49 52 54 59 61 60 62
7 7 7 7 8 7 6 5 5 7 12 17 19 19 18 17 15 12 10 7 5 4 3 4 2 2 6 10 15 19 22 20 18 19 17 11 8 6 3 4 10 15 14 12 11 12 14 15 14 12 11 10 9 9 9 9 9 9 10 10 8 10 19 31 37 39 41 42 48 44 22 15 21 28 37 40 41 39 35 37 40 47 52 52 57 59 58 63
7 7 7 8 8 6 6 5 5 8 14 18 19 19 18 17 14 11 8 6 5 4 3 4 3 7 11 10 15 20 20 19 18 19 17 15 15 11 7 8 11 13 12 11 12 14 15 16 14 11 10 9 9 8 7 7 7 6 9 10 7 8 13 22 30 32 38 43 45 39 21 15 18 25 36 36 36 38 33 33 38 46 51 50 54 55 55 59
7 7 8 8 7 6 5 5 7 11 15 18 18 19 17 15 13 9 7 5 4 3 4 5 5 11 15 12 16 19 19 19 19 19 16 16 18 15 11 11 12 12 11 11 13 15 15 15 13 11 10 8 8 7 6 7 6 6 7 8 8 8 8 16 28 33 36 39 42 38 23 15 18 26 36 36 34 34 31 30 36 44 47 47 50 50 50 54
11 10 9 8 6 5 5 6 9 13 17 18 18 18 16 14 11 8 6 4 4 4 4 5 8 13 16 15 16 17 18 19 18 18 16 16 17 15 12 10 10 11 11 12 15 15 14 14 12 11 9 7 7 7 7 8 7 7 7 7 9 9 8 11 24 34 35 35 36 36 29 18 17 23 34 41 37 30 29 29 33 43 46 45 47 47 48 51
15 12 10 8 6 5 6 8 11 14 17 18 18 18 16 13 9 6 5 4 6 9 8 7 10 14 14 14 15 16 18 19 17 17 16 16 15 13 12 10 9 10 11 13 14 14 13 12 11 9 8 7 7 7 8 9 8 8 8 8 8 8 8 7 14 23 26 31 31 29 28 21 15 16 26 39 38 30 29 28 31 39 42 43 45 45 46 48
16 13 9 6 5 5 7 9 13 16 17 18 18 17 14 11 9 7 5 5 9 13 11 10 11 13 13 15 16 16 18 18 16 16 16 16 13 10 10 10 9 11 13 13 13 13 12 11 10 8 7 6 6 7 7 7 7 7 7 8 8 7 7 7 10 15 19 26 25 22 22 17 13 13 20 34 39 35 32 30 33 36 38 43 45 45 47 47
15 11 7 5 5 6 8 11 14 17 17 18 16 14 13 10 9 10 8 7 9 10 9 10 11 13 14 15 15 16 17 16 15 16 16 15 12 9 9 10 10 12 12 12 11 10 10 11 10 7 7 6 6 6 6 6 7 7 6 6 7 6 6 8 13 19 25 25 19 20 19 14 13 12 17 30 38 38 36 34 36 37 37 43 47 47 48 48
12 8 6 5 5 7 11 14 16 17 17 15 12 15 17 12 11 13 11 10 8 7 8 10 10 12 13 14 15 16 15 14 14 16 15 13 11 9 9 9 10 11 10 10 10 8 10 11 9 6 6 5 5 6 6 6 7 7 7 6 6 6 5 10 16 22 30 26 18 23 21 14 15 13 17 29 34 33 32 34 37 39 39 43 49 49 48 48
9 7 5 5 7 10 14 16 17 16 15 13 15 23 23 17 16 15 12 11 9 7 7 8 10 11 13 14 15 16 13 12 13 14 14 12 11 9 8 9 9 10 9 9 11 10 11 10 7 6 5 5 6 6 7 7 7 6 6 6 6 6 4 13 24 27 30 23 15 21 19 12 14 16 21 28 28 28 34 37 37 38 41 44 48 48 48 49
8 6 5 7 11 14 16 16 16 15 16 19 22 26 22 17 17 15 14 12 9 10 11 10 12 13 14 14 15 14 12 11 10 12 13 11 10 8 8 9 8 8 8 8 10 10 10 8 6 5 5 5 5 6 7 6 7 6 6 6 5 5 3 10 22 27 30 25 19 22 19 10 11 17 24 30 30 34 44 46 41 40 44 47 48 48 48 47
7 5 7 11 14 16 16 15 16 17 19 21 22 22 20 19 18 17 18 13 8 13 15 14 15 15 15 14 14 14 11 10 10 11 12 10 9 8 7 8 7 8 8 7 8 9 8 6 5 5 5 6 5 6 6 6 7 6 6 6 4 5 4 4 9 14 24 30 27 22 14 8 9 12 20 29 35 40 48 50 46 44 47 50 50 49 50 50
7 7 11 14 15 16 15 16 17 18 20 21 22 23 21 21 19 19 20 14 10 13 14 14 15 15 14 13 14 14 10 10 10 11 12 10 8 7 7 7 7 7 6 6 7 6 6 5 5 5 5 6 6 5 5 5 6 5 5 5 4 4 4 4 3 4 12 20 21 17 10 9 9 9 15 22 28 36 43 43 42 46 49 51 49 47 52 54
7 10 14 15 15 16 16 17 17 19 23 24 23 23 23 21 19 21 21 13 10 13 12 12 13 14 13 12 14 13 10 10 11 12 12 10 8 7 6 6 6 6 6 5 5 5 6 6 6 5 5 6 5 5 5 5 6 5 4 4 4 4 3 4 3 4 6 10 16 15 10 9 8 10 17 20 21 27 31 31 35 46 49 44 42 44 50 55
9 13 15 14 15 17 17 17 18 24 26 23 21 20 21 20 17 21 20 14 13 13 11 11 12 12 11 10 12 11 10 10 10 12 12 10 8 7 6 5 5 6 6 6 5 5 5 6 6 6 6 6 5 5 4 4 5 5 4 3 3 4 3 3 3 4 5 6 12 13 10 10 8 12 20 21 19 18 19 20 26 39 42 37 38 41 46 51
12 14 15 15 16 17 17 18 22 29 26 21 20 19 20 18 17 19 17 14 16 12 9 10 10 11 10 9 11 10 10 10 10 11 12 11 9 7 6 5 4 6 7 7 6 6 5 6 6 6 7 5 4 5 4 5 5 4 4 4 4 4 3 4 3 4 5 6 9 10 10 10 8 13 20 19 17 15 17 17 20 31 36 34 36 37 40 42
14 15 15 15 16 17 18 20 24 28 24 20 20 19 18 18 19 18 14 14 15 9 8 10 9 10 9 9 10 9 9 10 10 11 12 12 10 8 6 6 6 6 7 7 6 6 6 7 7 6 6 5 5 5 5 5 4 4 5 4 5 4 4 4 4 4 6 7 8 8 8 9 7 10 13 13 16 16 16 17 21 28 31 31 33 34 36 38
15 16 16 15 16 18 20 23 24 23 20 20 20 18 19 20 19 16 12 13 12 9 8 8 8 9 8 8 9 8 9 9 10 10 11 11 10 9 8 8 7 6 6 7 6 6 6 9 10 8 6 6 6 6 6 5 5 5 5 4 4 4 4 5 5 6 8 9 9 8 7 9 9 9 9 13 18 19 16 18 22 24 26 29 29 29 32 39
15 15 16 16 17 19 23 26 24 21 20 20 20 20 20 19 16 14 12 11 10 8 8 7 7 8 8 8 8 8 8 8 10 9 9 10 9 8 9 8 7 7 7 6 6 5 5 8 9 7 7 7 6 6 6 5 6 5 5 4 4 5 6 6 8 9 9 10 11 9 9 10 10 10 10 13 18 19 17 18 21 22 25 28 28 31 33 38
15 16 16 18 20 22 27 27 23 22 20 20 21 21 20 16 13 13 10 9 9 7 6 7 6 7 8 7 8 8 8 8 9 9 8 8 8 8 8 7 7 7 8 7 6 5 5 6 6 8 9 8 7 7 6 5 6 5 4 4 5 7 8 8 9 9 9 10 11 11 13 13 10 11 12 13 16 18 19 20 21 23 27 28 28 35 37 37
18 20 21 22 24 26 28 26 23 23 21 21 23 21 19 17 14 11 7 7 9 7 5 6 6 7 7 7 8 8 8 9 9 9 9 8 8 8 7 7 7 8 8 7 6 6 6 7 7 8 9 9 8 7 6 5 5 5 4 4 6 8 9 10 9 9 9 9 9 13 16 13 9 10 11 13 15 17 22 24 25 28 31 30 27 30 36 40
23 25 26 27 28 30 29 25 24 24 22 23 23 20 20 19 15 13 10 8 8 6 5 6 6 7 8 7 8 8 8 9 9 9 9 9 9 8 7 8 8 8 8 8 7 7 8 9 9 9 8 8 8 6 6 5 4 4 3 3 5 6 8 10 9 9 9 8 10 14 15 12 12 12 11 13 15 18 23 26 29 34 35 33 30 28 34 42
26 27 27 27 27 28 29 27 24 23 22 23 22 21 22 20 15 14 12 8 6 6 6 6 6 8 8 8 8 8 9 9 9 9 9 8 9 8 8 8 8 8 8 8 9 7 9 10 9 9 8 8 6 5 5 4 4 4 3 4 5 4 6 7 7 8 8 8 10 12 11 9 10 12 12 14 17 20 24 27 30 33 30 29 32 33 36 43
26 28 28 26 25 25 25 24 22 21 22 22 22 22 21 18 15 16 15 11 8 6 6 6 7 7 8 8 9 9 8 9 8 9 9 9 9 9 9 8 8 8 8 9 9 8 9 10 9 9 9 9 8 6 5 5 5 5 4 5 5 4 5 6 9 10 8 9 11 11 10 8 9 13 15 16 19 21 22 23 23 23 25 29 34 39 43 48
26 28 28 26 25 23 21 21 21 22 23 21 22 22 19 17 16 16 17 16 11 7 6 7 7 7 8 8 9 9 8 9 8 9 9 8 9 11 10 9 9 8 8 8 8 9 9 9 10 10 10 10 10 9 7 6 5 5 5 5 5 6 5 6 10 10 10 11 11 10 9 7 12 21 20 16 17 18 17 20 22 23 30 35 36 42 48 52
24 26 29 26 24 22 19 18 18 21 22 19 21 24 19 17 17 16 16 16 12 7 5 6 7 7 7 7 7 8 8 8 8 8 8 8 11 13 12 12 11 10 10 9 8 9 9 10 10 9 10 10 10 10 9 8 7 6 6 5 6 8 8 8 10 10 11 11 10 12 10 11 22 30 29 25 24 22 21 24 28 29 36 40 39 43 50 54
23 25 28 26 23 21 17 15 18 22 20 17 20 22 18 16 16 15 16 14 10 7 5 6 7 7 7 7 7 7 8 8 8 8 9 10 13 15 14 14 13 11 12 10 8 9 10 12 11 9 9 9 8 9 9 9 8 7 7 6 7 9 9 9 8 8 10 10 11 12 10 21 38 41 38 39 38 35 32 32 36 37 41 46 46 49 53 56
26 25 25 23 21 18 15 16 20 20 17 17 19 18 17 16 14 13 14 14 11 9 8 7 6 7 9 9 8 7 8 8 7 8 10 11 13 15 13 14 14 12 10 9 9 9 11 13 12 10 9 9 10 11 10 11 10 8 8 8 9 9 8 10 9 8 10 10 13 13 12 30 48 46 45 50 48 44 39 39 45 48 51 54 56 60 61 58
28 22 20 19 17 16 18 20 21 19 16 16 17 16 17 17 13 12 14 14 13 13 11 10 9 9 11 10 9 9 9 9 9 9 10 11 13 14 13 14 15 12 8 9 9 10 12 13 12 11 9 10 12 11 12 12 11 10 9 9 10 9 9 12 12 11 10 10 14 13 18 40 51 45 50 54 50 49 47 47 53 57 61 64 65 68 69 65
26 20 20 20 17 20 24 21 19 19 16 15 16 16 17 17 13 12 13 13 13 13 13 13 13 13 13 13 12 11 11 11 11 11 12 12 12 13 12 13 16 15 12 10 10 13 15 13 12 13 11 11 12 11 12 12 11 11 11 10 11 9 11 13 14 15 13 12 15 11 18 44 52 46 50 52 51 54 54 54 57 59 65 70 71 74 76 74
23 22 23 21 19 24 25 19 17 17 15 14 16 14 14 14 12 11 13 12 12 12 12 14 15 15 15 14 13 12 13 14 13 13 13 13 12 12 12 12 14 16 13 11 12 16 19 16 14 16 14 11 11 11 11 11 11 11 11 12 12 11 13 13 13 16 14 14 18 13 23 49 54 46 49 50 50 55 56 56 59 59 63 68 72 76 78 77
24 25 26 22 22 26 24 17 15 15 14 14 14 13 12 13 12 12 12 12 12 12 13 14 14 14 15 15 14 14 15 15 15 14 13 14 13 12 12 11 12 14 16 18 17 15 16 17 16 17 18 16 15 14 13 12 11 10 11 14 15 13 14 13 13 16 15 18 19 15 30 55 53 44 48 48 47 51 52 53 56 59 61 63 66 70 74 76
25 27 29 27 27 26 22 18 15 14 14 14 13 13 13 12 13 13 12 12 12 12 13 14 13 13 14 14 14 15 15 15 15 15 13 13 12 12 12 11 10 13 21 27 24 16 16 18 18 19 19 19 20 19 17 14 11 11 12 15 17 15 13 14 16 17 19 24 22 17 31 51 52 46 49 48 46 48 47 47 52 56 60 62 62 63 67 71
21 22 25 24 24 22 20 20 18 14 14 15 15 13 12 12 13 12 12 12 12 12 12 13 13 13 13 14 15 15 15 14 14 15 14 12 12 11 12 13 10 11 20 25 22 17 18 18 20 23 22 18 19 19 16 13 12 13 13 15 17 17 16 15 14 17 21 21 22 27 37 47 51 50 49 48 46 46 44 45 51 55 56 58 59 58 60 63
20 21 22 21 20 17 16 17 17 16 15 16 17 15 13 13 12 12 12 12 12 12 11 11 11 12 13 14 15 16 16 15 15 15 14 13 12 10 11 13 11 10 14 16 14 16 19 18 18 22 20 15 16 17 14 13 14 14 14 15 18 20 21 18 14 20 22 15 22 42 47 47 51 51 49 50 48 44 43 45 50 53 52 54 56 56 57 58
24 26 26 24 20 17 16 17 16 15 14 15 15 14 13 13 13 14 13 12 12 12 12 13 12 11 12 14 15 16 17 18 16 16 16 14 13 11 11 12 11 10 11 9 10 15 18 16 16 17 17 15 15 14 13 14 16 18 18 20 22 23 23 22 21 25 24 19 31 51 54 51 53 52 49 50 47 45 46 47 48 49 49 50 51 52 53 56
25 26 25 24 21 18 18 18 17 14 15 17 16 14 14 14 14 14 13 13 13 12 13 14 13 12 11 13 15 17 19 19 18 18 18 15 14 13 12 12 12 11 10 9 11 14 15 17 16 15 16 15 14 14 13 14 19 22 23 25 26 25 26 26 27 28 27 29 39 51 55 54 52 48 49 51 49 48 48 47 48 48 47 48 48 48 51 54
26 24 21 19 19 19 18 16 15 14 15 19 18 16 15 14 14 15 14 16 16 14 13 14 14 13 13 13 14 15 17 18 18 19 18 17 16 15 14 14 12 11 11 10 11 13 15 19 19 16 17 16 14 14 13 15 20 23 26 29 27 26 27 29 31 32 33 38 44 48 56 60 53 48 51 52 51 51 50 50 51 51 51 51 50 50 51 53
23 21 20 18 19 23 20 16 16 15 15 17 18 18 16 15 16 16 16 17 17 15 13 13 14 15 15 16 16 16 16 17 17 17 17 17 17 15 15 15 13 14 14 12 13 12 12 16 17 16 17 17 14 13 13 18 22 21 25 31 30 27 29 32 38 41 40 42 46 48 54 60 55 50 51 51 50 51 54 56 55 55 59 61 57 53 52 53
19 19 21 20 19 23 20 15 15 16 17 19 20 19 17 16 15 16 18 19 18 17 16 15 15 16 16 17 19 20 21 21 20 20 19 19 18 16 15 15 14 15 15 14 15 14 12 13 13 12 16 17 13 12 17 21 21 20 24 30 33 34 35 39 46 49 45 43 46 49 51 54 54 53 52 51 51 54 59 61 59 61 66 67 61 56 54 51
Wind_Speed
8 9 9 9 9 10 10 10 10 10 11 11 12 12 12 12 12 13 14 14 13 13 13 13 13 12 12 12 13 13 12 12 11 11 11 8 8 10 10 8 7 6 5 6 7 7 8 7 8 13 8 3 2 1 1 0 2 4 2 5 6 6 7 5 6 6 3 4 6 6 4 2 5 5 4 4 3 3 5 4 4 3 3 5 8 13 17 17
10 10 10 10 10 10 10 10 10 11 11 11 12 11 11 12 12 12 12 12 11 11 10 10 10 8 7 8 8 8 9 7 6 7 7 7 8 8 8 9 7 5 5 5 6 6 7 7 7 10 6 3 1 1 1 0 2 3 3 6 6 6 7 5 6 5 4 5 6 5 4 2 4 4 4 3 3 5 5 5 5 5 6 8 12 15 17 17
12 11 11 11 11 11 11 10 10 10 10 10 10 10 10 11 11 10 10 10 10 9 8 8 7 5 5 5 5 6 5 3 2 2 3 6 7 7 9 10 7 6 5 5 5 6 7 9 10 9 6 2 2 1 0 1 1 3 3 5 7 4 5 6 4 3 4 3 5 6 4 3 3 3 3 1 2 5 4 5 7 8 9 11 15 16 17 18
14 14 13 13 12 12 12 11 11 10 10 10 10 9 9 10 10 9 9 9 8 8 7 7 6 4 4 4 4 3 1 3 4 4 4 6 6 8 10 9 8 7 5 4 4 6 7 9 10 8 6 1 3 1 1 2 1 3 4 6 7 2 4 7 3 3 2 0 3 5 5 3 4 3 3 2 2 4 3 5 7 8 11 13 16 17 17 18
14 15 15 15 14 13 13 12 11 11 10 10 9 9 9 9 9 8 8 8 8 7 7 6 5 3 3 3 2 1 2 4 6 5 4 6 7 9 10 9 8 7 5 4 3 6 7 8 8 6 4 2 2 1 3 3 2 1 5 7 5 2 4 7 4 3 2 1 2 4 3 3 4 4 3 3 1 3 4 3 6 9 12 14 17 18 17 18
14 14 15 16 15 15 14 13 12 12 11 10 10 9 9 9 8 8 7 7 7 6 6 5 4 3 3 1 0 1 2 2 7 4 4 6 9 10 10 10 9 7 4 2 2 4 6 8 7 4 3 2 4 3 4 2 3 1 6 7 4 3 5 6 4 3 2 2 2 2 2 1 2 3 3 3 2 3 5 4 6 11 12 13 16 17 17 18
13 13 15 15 16 16 15 14 13 12 11 10 10 9 9 8 8 8 7 7 6 5 5 4 3 3 2 1 2 2 0 5 6 4 5 6 9 11 11 10 9 7 5 2 1 4 6 8 6 5 4 1 5 6 3 2 2 3 5 7 5 4 4 5 4 3 2 1 2 1 0 1 2 2 0 3 3 4 3 3 6 11 12 13 15 16 16 17
12 13 13 14 15 16 16 15 14 13 11 10 10 10 9 8 8 7 6 6 5 5 4 4 2 3 1 2 1 2 3 6 4 4 5 6 10 12 12 11 10 8 6 4 1 4 5 7 7 6 4 4 4 5 3 2 1 3 5 6 4 4 4 4 4 3 2 1 2 1 2 1 3 5 5 4 1 5 5 4 8 12 13 13 14 15 15 15
12 12 12 13 14 14 15 15 14 13 12 10 10 10 9 8 7 7 6 5 4 4 4 4 2 2 1 2 3 4 5 6 2 3 5 7 10 13 13 12 11 9 7 6 3 3 5 8 8 6 5 4 4 4 4 3 2 5 6 2 3 5 5 3 3 3 2 1 2 3 2 0 2 6 5 1 2 6 7 6 10 13 13 13 14 14 15 15
11 11 12 12 12 13 13 14 14 13 12 11 10 9 8 7 7 6 6 5 4 3 3 3 2 2 1 2 5 3 7 5 3 3 6 9 11 13 14 13 12 11 8 6 3 2 5 7 8 6 5 2 3 2 5 6 4 5 4 1 4 5 5 2 2 3 2 1 2 4 4 1 1 5 1 5 4 6 8 8 11 13 14 13 13 14 14 14
10 11 11 11 11 11 12 12 13 13 12 11 10 9 7 6 6 6 5 4 3 3 3 3 2 2 1 1 6 1 8 6 4 3 5 9 11 13 14 14 14 12 8 5 3 1 3 5 7 6 4 3 4 1 4 6 3 2 1 2 5 5 5 3 2 3 3 1 2 4 6 3 3 3 0 5 4 6 7 9 12 12 13 13 13 14 13 13
9 9 10 10 10 10 10 11 11 11 11 11 9 7 6 6 5 5 5 4 3 3 3 2 2 2 1 3 4 3 7 5 5 3 4 7 10 12 14 15 15 13 8 4 2 1 3 4 6 6 5 7 5 1 4 6 2 1 3 3 5 6 5 4 3 3 4 1 1 5 5 4 4 3 2 3 3 5 6 8 11 11 12 12 13 13 13 13
8 8 9 8 8 9 9 10 10 11 11 10 8 6 6 5 5 5 4 3 3 3 2 2 2 1 2 4 2 4 5 4 5 4 4 7 8 10 13 15 16 15 11 6 3 1 2 5 6 6 7 7 4 3 4 3 2 3 4 3 2 5 4 5 4 5 5 2 1 5 3 2 3 3 3 4 4 5 6 7 9 10 11 11 13 14 13 14
7 7 7 7 8 8 9 9 10 10 10 8 7 6 5 4 4 4 3 3 2 2 2 2 1 0 2 2 3 5 4 5 5 3 4 8 8 8 11 15 16 15 12 9 5 1 1 6 6 6 5 6 5 4 4 3 3 2 3 3 1 1 4 6 5 6 6 3 4 5 3 2 4 4 3 4 6 6 5 6 8 9 10 11 12 13 13 14
7 7 7 7 8 8 8 9 9 9 8 7 6 6 5 4 4 4 3 3 3 3 2 2 0 1 3 3 5 6 5 5 4 4 5 8 7 7 10 14 15 13 11 8 5 1 3 6 6 7 6 6 6 6 5 4 3 1 3 2 1 3 4 7 4 5 3 3 7 7 3 1 4 5 4 4 8 8 6 6 7 9 10 11 12 12 12 13
6 7 7 7 8 8 8 8 8 8 8 7 6 6 5 5 4 4 4 4 4 3 2 1 1 1 3 3 5 6 5 5 5 5 6 8 6 5 10 12 12 12 10 7 4 1 3 4 5 7 7 6 5 5 5 4 4 2 2 2 3 4 2 4 5 3 1 3 8 8 4 3 2 6 5 5 7 7 6 6 8 9 10 10 11 11 11 12
6 7 7 7 8 8 8 8 8 8 8 7 7 6 6 6 6 5 5 5 4 3 3 1 1 2 3 3 5 6 6 5 6 6 7 9 7 7 10 10 10 10 9 6 4 1 2 4 5 5 5 5 3 5 5 4 2 1 2 2 2 4 4 1 4 5 3 4 6 8 7 7 2 5 6 6 6 6 6 6 8 10 10 10 10 10 11 11
6 6 7 7 8 8 9 9 9 9 8 8 8 7 7 6 6 6 6 6 4 3 3 3 4 3 3 5 5 6 7 7 8 8 7 8 8 10 11 8 9 11 9 7 5 4 4 4 5 5 4 5 3 5 5 3 4 3 4 3 2 3 3 3 3 3 2 5 5 6 7 8 6 4 6 6 6 6 6 5 7 9 10 10 10 10 10 11
6 6 7 7 8 9 9 10 9 9 9 9 8 8 7 6 5 4 5 6 5 2 1 6 6 1 4 8 5 5 8 9 9 8 7 7 8 11 10 9 10 12 10 7 7 5 5 5 6 6 5 3 2 3 6 6 6 6 6 5 5 5 3 4 4 4 3 5 6 6 7 8 7 5 4 6 6 5 6 5 6 7 9 10 10 10 10 11
6 6 7 8 9 10 10 10 10 9 9 9 9 9 7 7 5 3 5 7 7 3 2 4 5 1 5 8 4 5 8 10 9 7 7 8 9 9 9 9 10 11 9 6 4 4 4 6 6 6 4 4 5 4 5 6 5 6 6 5 4 6 3 5 4 3 3 5 3 2 7 9 8 7 3 4 6 5 6 7 7 7 8 10 11 11 11 11
6 7 8 9 10 11 10 11 10 10 9 9 12 9 4 5 4 4 7 7 7 6 2 4 6 2 3 5 5 7 9 10 9 8 8 8 8 9 9 10 10 9 6 4 2 1 3 8 7 3 4 4 4 3 4 5 5 6 6 6 4 5 2 6 4 2 0 4 0 1 7 9 8 7 3 3 5 5 6 7 8 8 9 10 11 12 11 10
7 8 10 11 12 12 12 11 10 11 11 11 12 6 2 5 4 5 6 4 5 6 4 5 6 2 2 5 8 10 9 10 10 9 8 8 9 9 8 10 10 7 5 4 6 5 6 10 6 3 5 2 1 2 5 6 6 7 5 5 4 3 2 4 4 2 2 3 2 3 7 7 6 5 2 2 4 3 4 5 6 8 9 10 10 11 11 11
8 10 13 13 14 13 12 12 11 12 12 11 9 4 3 6 6 7 4 2 6 5 3 5 5 2 4 5 9 11 9 9 10 10 9 8 9 6 6 10 9 5 5 7 9 8 6 5 0 5 3 3 3 3 5 6 7 7 5 5 4 3 3 0 3 2 3 3 4 5 7 6 4 3 1 3 3 3 4 5 6 7 8 8 8 9 10 11
11 13 15 15 14 13 13 13 12 12 11 9 7 5 5 6 6 7 3 1 6 5 3 4 2 3 4 5 9 9 6 7 7 9 11 8 7 5 5 6 6 6 7 6 7 10 8 1 6 3 1 5 6 4 6 7 7 7 6 7 6 4 4 4 3 2 4 4 3 6 6 3 2 2 2 4 5 4 5 7 8 8 7 7 7 8 9 9
14 15 16 15 14 14 14 14 12 11 9 6 5 4 4 4 5 6 3 2 6 6 4 4 3 4 4 5 8 6 5 7 4 6 10 7 5 5 4 3 5 7 6 4 5 9 8 1 3 3 3 4 6 5 4 6 7 6 7 7 6 5 5 5 5 5 5 3 2 4 5 1 2 2 0 3 3 4 6 7 8 8 7 7 7 7 7 8
16 16 16 15 15 16 15 13 11 10 7 4 2 3 3 3 3 5 3 4 6 6 5 6 5 6 6 6 7 6 6 7 4 5 8 7 4 4 5 5 3 3 3 4 5 5 2 3 1 4 5 5 7 6 4 5 8 5 2 3 2 4 5 6 6 6 5 3 2 2 5 3 2 1 2 1 1 5 4 2 5 8 8 6 5 4 6 7
16 17 17 16 17 16 14 12 12 8 4 3 2 3 3 2 2 3 3 4 6 4 5 5 4 6 6 6 7 6 4 8 7 6 7 7 6 4 5 5 4 2 3 3 4 3 4 4 4 5 6 6 7 6 3 4 8 3 5 3 1 3 6 6 7 6 4 4 2 5 4 5 3 1 4 2 4 9 5 3 2 4 6 4 3 3 4 4
16 17 16 17 17 14 11 12 11 6 2 4 3 3 3 1 1 2 4 4 5 3 4 4 3 6 5 4 7 2 4 9 6 6 7 8 6 4 5 4 3 3 4 6 3 5 4 5 5 5 6 7 4 2 2 3 8 1 6 3 3 4 6 6 7 6 3 5 5 4 3 5 4 2 4 4 5 5 3 1 2 3 7 7 5 4 3 3
16 17 17 18 16 12 12 12 9 5 3 4 4 3 2 1 1 4 5 2 4 3 4 5 5 8 5 5 6 2 4 4 0 5 9 7 5 3 2 2 2 1 4 8 4 2 2 2 2 4 6 5 3 4 2 6 6 3 4 2 2 4 5 5 6 6 3 6 6 0 2 6 4 1 3 5 3 2 4 4 2 3 10 10 7 7 6 7
16 16 17 17 14 13 13 10 7 6 4 3 2 2 2 1 3 6 3 3 3 4 5 4 5 7 8 7 6 4 4 3 3 7 8 5 5 3 2 2 3 4 4 7 7 5 2 2 1 5 8 6 5 3 3 6 4 1 2 5 6 6 5 4 4 4 5 6 3 2 2 6 3 1 2 3 1 1 3 5 5 5 11 11 9 9 8 8
16 16 17 16 14 14 12 8 7 5 4 2 2 1 2 2 5 5 3 3 3 5 5 5 5 6 10 8 6 6 5 4 6 8 8 5 6 5 3 3 4 5 5 5 7 7 6 6 4 4 6 5 5 5 4 4 4 4 6 6 6 6 4 5 4 4 7 4 2 3 1 5 5 1 3 3 2 0 2 4 5 7 10 10 10 11 10 9
15 15 15 14 14 13 9 7 7 5 4 2 1 3 4 5 5 1 5 3 3 6 5 6 7 7 10 7 4 7 5 4 7 6 5 5 5 5 5 4 3 4 5 4 4 6 7 6 3 3 5 4 6 5 5 6 6 6 6 5 6 5 4 5 5 4 5 1 4 2 1 4 4 2 4 1 2 1 0 2 5 8 9 10 11 11 11 11
15 15 15 14 12 11 8 8 7 5 4 2 2 5 6 5 3 3 6 4 2 4 3 6 8 8 10 8 5 7 4 4 7 5 3 4 4 4 4 3 3 4 2 1 3 6 6 5 4 4 5 4 6 6 3 5 7 8 6 5 5 5 5 6 4 4 4 1 5 2 2 5 3 3 3 3 2 2 2 3 5 7 9 9 10 10 11 12
16 15 15 12 9 8 8 8 6 5 4 2 4 6 6 3 3 2 4 4 4 4 5 7 9 9 9 6 6 7 4 3 6 5 5 5 5 5 5 5 6 6 3 2 3 3 4 5 3 1 1 2 5 6 5 3 5 6 3 4 5 4 4 5 4 3 3 0 3 2 2 4 2 3 1 2 2 3 5 7 8 8 8 9 10 10 11 12
15 15 13 9 6 6 7 6 6 5 4 4 6 6 4 3 5 3 3 5 5 6 7 7 9 10 8 4 5 6 3 2 6 5 5 5 4 3 3 4 6 6 5 3 2 2 4 2 6 4 3 2 3 2 4 6 4 3 2 5 4 3 2 3 4 5 5 4 1 2 3 2 1 3 2 1 2 5 8 9 9 9 9 9 11 12 12 13
15 14 11 8 6 6 6 5 4 5 5 6 6 3 1 3 3 1 2 3 4 7 9 8 8 9 8 5 6 7 3 1 6 6 4 3 1 0 1 1 3 6 6 4 1 2 4 3 7 4 3 4 4 2 2 6 3 2 4 4 2 3 4 5 3 2 4 6 2 1 4 2 2 2 4 4 4 5 7 9 8 8 8 10 12 12 12 13
13 12 9 7 5 3 3 3 3 5 5 7 4 1 2 3 3 3 2 1 1 5 9 9 5 5 7 7 6 8 6 4 6 6 4 4 2 0 2 2 2 6 7 6 2 1 3 2 6 3 2 5 2 2 1 2 4 3 3 1 4 1 4 5 4 3 5 6 2 2 5 4 1 2 5 7 6 4 5 9 8 5 8 10 12 12 12 12
12 11 7 6 6 3 3 3 3 4 6 6 1 2 2 2 4 4 1 1 2 6 8 5 3 3 5 8 7 8 8 6 6 5 3 3 2 1 2 2 3 5 7 7 4 1 3 2 6 2 1 3 3 4 2 4 1 4 3 2 1 3 4 3 4 5 5 6 3 2 3 3 4 4 5 8 6 5 4 6 3 4 9 10 10 11 11 11
12 10 5 5 6 4 4 5 3 5 6 4 3 3 1 3 5 3 0 2 4 7 5 3 4 3 4 5 6 8 7 5 6 5 3 2 2 1 2 1 2 3 5 8 4 1 1 3 3 3 1 1 4 5 3 3 3 1 2 2 2 4 4 2 3 4 5 6 4 2 2 1 5 6 8 10 9 8 6 4 4 7 11 10 10 10 10 10
11 6 4 5 6 6 6 5 4 6 4 0 2 3 1 3 5 5 2 2 2 2 1 3 5 5 3 2 3 6 5 4 4 3 2 1 1 3 3 2 3 2 4 8 5 0 1 3 2 3 2 3 2 1 4 3 1 3 4 3 1 1 3 3 3 3 5 6 5 5 4 2 6 6 8 10 9 9 8 6 8 11 11 11 11 11 10 11
8 4 4 6 7 7 5 4 4 4 1 3 3 3 2 2 4 7 5 2 1 2 3 3 4 4 4 2 3 5 4 4 4 3 2 1 1 2 5 5 5 1 4 7 4 1 1 2 3 2 1 2 2 4 4 4 5 4 3 3 3 3 4 5 4 3 4 6 5 6 4 4 6 5 7 8 9 9 10 9 11 13 13 13 13 12 11 10
6 3 5 7 7 6 3 3 2 2 0 3 3 3 2 2 3 6 5 4 4 5 5 5 5 4 3 2 3 5 4 4 3 2 1 2 3 3 6 7 5 4 3 3 2 2 2 2 3 2 2 2 4 4 1 3 4 4 2 3 4 4 4 6 5 2 3 4 3 6 4 3 6 6 7 8 10 12 13 13 13 15 16 15 15 15 14 13
3 5 6 7 6 3 4 2 4 2 2 5 4 4 4 3 5 6 5 5 5 5 6 5 5 5 3 2 3 5 3 2 1 2 3 4 5 5 6 8 5 4 5 2 3 3 2 3 2 1 1 2 4 3 2 2 4 4 0 2 4 4 4 5 5 4 5 4 2 6 4 3 5 6 8 10 12 13 15 15 15 16 17 17 18 17 17 16
7 9 5 5 3 1 4 2 5 5 5 6 7 7 8 8 9 8 8 8 6 4 5 6 6 6 4 2 3 4 1 0 2 2 2 3 4 4 5 8 6 2 2 3 1 1 2 2 2 3 3 3 4 4 4 5 5 4 0 3 3 3 4 5 4 3 5 4 4 7 4 4 4 5 8 11 12 13 14 15 16 17 17 17 18 18 18 18
9 7 4 3 2 1 1 2 3 5 7 7 8 8 7 8 9 9 10 11 10 6 5 5 5 6 5 3 3 4 1 1 2 2 2 3 4 3 4 7 8 6 5 6 3 1 2 2 2 4 5 4 4 3 2 2 2 2 1 1 1 3 5 6 5 5 5 2 3 7 3 5 5 6 9 10 10 10 11 12 14 16 16 17 18 18 18 18
6 4 4 4 2 1 3 3 2 4 5 6 7 6 6 8 7 8 9 9 10 10 8 6 3 2 4 3 4 6 3 3 3 3 3 3 4 3 3 4 7 8 6 3 1 2 2 2 3 4 5 6 5 3 2 3 6 4 2 3 2 2 4 5 6 5 5 4 4 4 2 7 7 7 8 8 8 8 8 10 12 13 14 16 17 18 18 18
2 2 2 3 4 4 5 4 2 3 2 2 2 3 5 7 6 6 8 7 7 7 7 8 6 4 5 4 3 5 4 3 4 4 2 2 2 3 2 0 4 7 4 1 1 3 4 4 4 5 6 5 3 1 1 4 8 7 5 5 3 2 4 7 8 5 6 7 6 3 4 6 6 7 7 6 7 7 9 11 12 13 13 14 15 16 17 18
1 2 2 2 2 3 4 3 3 4 4 3 2 2 4 6 5 5 7 6 5 5 3 6 8 8 7 5 2 2 3 2 4 3 1 1 1 0 2 3 2 5 4 1 2 2 5 5 4 6 7 4 2 2 3 5 6 5 6 6 4 4 5 7 8 5 6 8 4 3 4 5 7 7 6 6 7 9 11 11 12 12 12 12 13 14 15 16
4 4 3 2 2 4 5 4 3 5 6 4 3 3 4 7 7 5 4 3 5 6 5 5 7 8 7 6 4 3 3 1 2 4 3 3 4 3 2 3 3 2 4 3 3 3 4 5 3 6 8 7 6 5 4 6 6 5 5 4 3 4 4 5 6 4 4 5 1 5 7 7 6 5 7 8 7 8 8 8 8 9 10 10 11 12 13 13
5 5 5 6 7 7 6 4 4 6 5 3 3 4 4 6 7 6 5 5 4 5 5 5 7 6 6 7 5 4 5 6 3 3 4 4 3 2 2 1 1 2 5 4 2 1 2 3 1 4 8 9 8 6 6 7 7 6 6 4 4 4 3 3 3 1 2 2 4 6 6 5 4 6 8 7 6 6 5 5 6 7 8 9 9 10 11 11
8 10 10 9 6 4 3 3 3 4 4 3 3 4 3 6 7 6 6 7 6 5 5 5 6 4 4 5 6 5 6 7 6 6 6 6 5 3 2 3 4 5 5 3 2 1 3 3 1 4 8 9 7 8 7 6 7 9 9 6 5 5 3 2 1 1 3 3 5 6 3 4 6 8 8 6 4 3 3 6 5 6 8 9 9 10 10 10
12 13 10 7 4 1 1 3 1 2 3 4 3 2 3 6 5 2 3 5 6 5 5 3 2 1 2 4 6 7 7 8 9 10 9 8 8 7 6 5 5 5 4 3 2 2 3 4 4 5 8 6 4 5 5 5 7 8 5 4 3 2 1 1 2 1 3 4 4 3 1 6 8 8 7 4 0 3 4 5 4 6 7 7 7 8 8 9
Wind_Direction
231 231 231 232 234 234 235 235 236 237 240 242 247 254 260 264 266 268 271 273 275 275 274 273 272 272 271 270 269 271 274 277 280 278 273 259 241 242 239 231 237 256 275 297 317 319 322 319 321 333 324 269 304 321 6 300 267 266 285 54 57 49 55 26 24 44 48 87 102 120 145 113 107 131 144 156 171 156 149 139 124 112 93 110 127 140 148 153
236 233 232 233 234 236 237 238 238 239 241 244 249 255 261 265 266 269 271 274 275 275 274 272 272 274 275 275 274 275 277 278 276 269 258 231 226 232 225 224 231 246 266 294 311 304 309 319 321 325 312 259 315 354 50 76 272 305 17 63 56 38 56 38 29 48 32 69 102 122 140 123 93 126 161 159 153 168 164 155 152 134 126 131 139 146 151 156
240 237 236 236 235 236 237 238 240 241 243 246 252 257 262 267 268 271 273 275 276 277 275 272 273 279 284 288 286 282 278 257 217 205 202 204 213 215 214 219 223 235 258 284 300 308 319 328 332 330 310 297 45 0 334 113 331 342 357 63 66 33 70 73 52 54 27 63 117 125 141 152 116 137 178 177 146 171 182 173 170 156 149 149 150 154 156 160
240 240 239 238 238 240 239 239 241 242 245 249 254 258 265 269 272 275 276 277 277 277 274 273 278 285 296 303 293 284 213 177 155 140 151 174 191 200 208 209 215 226 252 280 306 333 337 332 333 330 305 339 87 187 45 64 339 347 358 49 66 24 77 86 84 86 52 19 113 126 149 159 153 176 192 204 184 158 164 183 184 170 163 161 159 161 162 165
240 239 239 239 240 241 241 242 242 243 246 251 256 260 267 272 276 277 276 276 274 275 273 275 285 297 318 316 289 229 206 178 137 134 145 157 172 188 201 200 207 220 244 276 334 346 343 332 321 314 308 15 94 170 72 56 295 6 50 48 58 18 65 90 101 104 110 151 132 136 133 123 159 196 208 230 284 82 82 142 180 172 169 168 164 166 167 169
243 240 240 240 240 240 242 243 244 246 247 250 256 260 266 273 277 276 276 275 273 273 272 280 295 312 338 336 72 135 265 118 117 145 144 149 168 178 190 192 203 213 222 245 7 344 339 332 327 339 331 15 50 52 76 78 291 339 68 51 51 51 59 94 110 114 126 156 142 104 60 101 191 204 185 237 276 96 79 81 156 168 169 169 167 170 169 171
246 243 241 240 240 240 240 242 244 246 247 250 256 259 264 272 275 277 277 274 272 270 271 283 300 325 350 78 93 132 179 77 105 153 138 153 169 171 180 186 199 201 195 185 0 338 342 345 356 350 323 35 46 45 72 132 294 324 51 55 71 82 60 92 116 124 128 121 94 53 301 284 291 326 116 244 233 165 145 94 143 163 166 167 169 174 174 173
246 244 243 240 241 240 240 241 242 244 246 248 252 256 262 269 273 276 277 274 271 266 269 284 302 334 340 113 127 194 129 85 103 155 146 163 167 167 174 181 191 187 176 162 150 336 348 358 5 331 332 52 31 41 51 223 197 347 18 51 97 109 79 106 129 132 137 109 113 230 249 345 313 312 304 278 180 159 175 138 147 160 164 170 173 177 178 178
246 245 243 242 241 240 240 240 240 242 243 245 248 254 259 265 271 273 276 273 266 261 264 280 302 324 322 119 241 224 116 95 124 152 159 165 166 170 171 178 185 176 163 147 136 356 1 1 7 337 338 27 1 37 16 305 37 9 350 29 120 119 99 124 152 154 162 131 173 247 269 289 307 293 281 276 105 148 163 151 151 160 166 172 176 180 181 181
247 246 244 243 241 240 240 238 237 238 239 241 244 250 255 261 266 269 273 267 258 250 251 273 299 304 354 132 253 218 111 110 132 143 169 169 170 172 172 179 178 166 157 148 147 16 1 355 3 333 300 325 332 23 10 349 5 351 333 70 116 125 115 136 178 173 197 177 198 264 285 263 312 288 228 99 108 146 151 150 153 163 168 172 177 182 185 185
248 246 245 243 242 240 239 236 234 233 234 237 239 246 251 254 258 264 267 258 249 231 240 269 281 297 90 188 276 131 114 116 107 121 167 172 174 173 175 179 173 162 156 157 165 331 334 357 359 324 293 318 308 198 31 5 339 332 276 158 122 135 132 142 178 174 215 193 172 258 277 248 209 261 64 90 124 149 149 152 156 166 168 172 178 181 188 189
248 246 245 243 242 238 236 234 230 228 229 230 235 240 241 245 250 254 257 248 233 219 235 261 270 308 145 220 282 89 122 122 105 105 138 163 176 177 178 176 168 161 155 169 185 279 311 10 2 331 334 325 304 180 32 8 338 209 234 225 144 162 150 139 167 174 220 210 138 257 262 219 194 194 131 114 159 165 159 156 159 168 169 174 178 181 189 190
248 246 244 241 237 233 230 226 222 220 221 224 228 229 230 233 238 244 248 234 213 210 226 252 276 304 226 226 201 128 133 133 128 112 118 143 161 174 178 172 166 165 164 176 182 229 312 18 5 331 332 325 338 10 352 353 275 205 230 272 182 181 148 141 165 169 208 182 157 266 293 122 144 147 141 141 172 181 173 166 166 170 172 178 180 184 190 192
249 245 243 237 232 227 222 218 215 212 213 216 215 215 216 214 224 232 227 213 187 189 206 240 281 224 225 222 166 165 139 131 145 133 128 130 136 157 167 167 165 166 169 172 170 182 358 18 354 307 311 327 342 316 265 213 241 243 226 248 249 348 105 136 163 173 192 157 171 250 304 89 108 113 136 172 190 195 192 179 173 175 176 181 184 189 193 195
247 243 238 232 226 220 214 210 205 203 202 204 201 200 195 195 208 208 205 183 164 181 193 230 337 114 215 200 172 182 149 136 159 161 155 137 132 151 160 166 166 164 167 169 169 160 12 7 337 307 311 310 284 264 246 204 206 257 262 222 77 5 90 120 142 190 206 141 183 230 295 74 122 109 99 157 187 197 208 194 180 182 183 185 188 192 196 198
244 238 233 226 218 210 203 197 192 191 191 189 186 182 177 179 185 183 175 157 164 178 175 213 122 157 231 181 159 185 167 157 176 175 169 152 146 164 162 163 165 163 163 167 172 127 359 341 313 302 298 284 268 273 273 231 196 176 295 336 45 350 10 109 123 157 205 156 190 225 279 316 153 138 114 129 171 196 212 204 190 190 190 192 193 195 200 199
237 230 225 217 206 197 190 184 182 180 180 179 174 169 167 170 175 168 158 161 169 171 177 196 133 195 240 160 161 176 165 168 175 171 165 155 152 159 158 160 163 160 156 157 160 193 307 301 285 275 262 260 281 284 265 248 228 120 318 325 46 351 333 17 106 119 179 212 215 221 244 288 268 166 166 161 178 209 222 211 194 194 196 197 199 202 203 204
225 219 214 202 191 184 180 176 174 174 173 170 167 166 167 170 167 161 161 161 152 164 198 187 173 209 197 171 171 156 160 173 167 165 164 157 150 153 159 165 163 161 162 169 176 211 257 268 276 282 255 243 254 264 270 340 349 341 335 324 346 330 320 345 38 83 201 236 241 229 236 273 276 224 208 196 200 218 226 224 201 197 200 198 203 208 208 211
211 206 197 186 180 175 172 171 169 169 167 166 165 161 157 150 145 160 173 171 175 200 220 169 182 283 112 140 144 147 167 169 159 161 164 159 149 151 161 167 168 175 186 197 185 198 259 263 252 260 250 251 336 307 309 348 341 324 323 311 320 313 321 22 31 39 343 262 241 246 259 278 283 278 231 199 200 211 220 228 213 203 204 201 206 211 213 219
199 191 180 174 171 167 165 163 162 162 164 165 159 150 146 151 157 168 183 198 212 243 22 155 191 355 95 122 124 150 160 160 159 160 163 158 150 155 166 171 181 197 212 227 186 162 261 264 249 261 293 343 359 332 313 326 313 303 295 281 295 297 329 49 44 34 342 277 246 244 278 288 287 287 265 188 186 206 227 230 221 215 210 204 208 214 217 223
188 178 167 164 160 156 155 154 157 160 161 160 155 152 161 188 186 150 170 204 219 219 225 185 210 250 116 128 139 153 157 162 162 162 167 156 160 177 177 183 200 207 207 235 242 170 246 256 256 295 2 8 355 331 306 295 281 276 281 284 281 283 344 59 48 30 327 267 286 97 283 285 280 288 295 189 201 227 237 231 224 220 215 209 210 216 219 222
175 164 156 153 148 148 150 152 157 157 158 158 156 160 216 194 170 129 159 190 184 203 218 193 214 245 150 149 148 156 162 165 160 163 167 156 179 198 177 191 220 211 170 191 237 237 238 253 258 69 53 11 306 303 275 266 267 262 265 273 277 313 357 94 98 97 180 264 329 0 304 291 281 294 309 202 226 241 233 230 230 224 218 211 210 216 218 217
160 152 147 144 145 148 149 150 152 152 155 155 153 165 176 162 145 133 156 169 147 174 205 197 224 214 170 154 147 161 170 167 163 165 169 169 187 205 187 202 223 213 194 214 234 243 239 250 351 80 56 299 269 245 252 253 249 249 256 270 281 341 327 270 106 129 201 265 312 324 305 292 278 257 168 150 187 196 200 212 222 226 223 215 214 218 218 217
150 147 143 143 147 147 145 146 147 149 151 149 148 153 147 141 132 134 156 209 137 147 189 193 207 171 166 149 157 176 179 166 166 161 172 185 180 187 203 209 220 221 224 231 239 251 257 11 55 51 313 290 275 239 236 246 236 230 243 270 292 329 324 325 6 303 222 205 261 295 286 282 314 270 161 133 156 169 178 197 208 214 216 215 219 221 220 223
148 145 142 145 146 143 144 144 146 147 143 141 141 135 129 124 126 136 176 207 137 134 174 172 151 148 152 153 164 178 164 157 162 150 166 190 183 179 182 178 229 228 207 205 234 251 256 68 57 279 255 263 269 250 229 246 252 237 218 241 288 321 320 312 320 301 256 196 132 309 294 356 38 308 206 121 152 152 161 185 191 188 191 201 212 217 218 226
148 144 144 146 145 145 145 144 148 139 129 140 144 132 122 106 134 156 208 206 145 137 167 167 162 153 148 151 161 182 182 157 152 156 166 182 177 185 180 161 223 248 160 193 242 253 240 102 146 257 266 256 257 251 224 232 256 259 154 163 280 308 303 302 307 296 289 325 75 274 296 327 347 326 84 60 67 89 98 175 158 160 175 189 200 205 211 225
148 144 146 146 147 149 145 147 147 128 123 167 155 130 117 90 140 172 224 190 142 144 161 148 148 149 142 151 168 198 175 133 140 157 170 177 166 204 215 170 183 168 132 214 229 197 180 156 182 229 255 250 246 240 184 206 254 276 71 71 297 291 295 305 300 282 297 327 245 214 266 298 304 62 94 53 59 73 54 354 52 126 145 147 155 170 197 220
147 145 146 148 151 151 149 151 143 126 161 164 133 113 107 93 123 210 239 166 121 152 155 117 135 150 139 156 178 215 91 132 155 149 170 188 173 219 232 175 193 147 155 231 207 128 164 196 208 230 246 243 258 316 76 225 256 355 58 357 315 301 295 303 289 278 304 304 261 196 214 273 295 90 108 61 56 89 105 73 4 55 96 100 103 116 125 129
147 145 145 149 153 151 152 153 145 147 161 139 124 100 77 48 158 243 251 135 122 174 138 121 150 157 156 162 174 189 126 152 256 119 162 190 170 230 270 135 245 186 182 246 266 100 141 211 259 268 263 264 309 354 350 246 258 35 47 295 261 252 266 277 277 283 289 276 276 161 220 274 307 60 91 52 51 150 118 105 140 88 84 86 94 101 101 98
147 147 146 150 154 154 154 153 152 156 147 136 124 75 15 297 226 229 208 117 154 157 127 148 158 157 177 174 162 184 173 129 86 130 156 181 172 209 350 84 251 250 212 238 259 264 217 165 255 254 257 288 319 303 260 254 266 15 264 247 235 228 241 260 266 289 275 257 281 33 280 276 297 26 61 60 97 195 101 117 147 99 79 80 84 86 85 87
146 147 147 151 154 153 149 149 161 163 159 160 112 47 282 221 238 242 137 111 174 144 147 175 159 162 186 187 157 168 178 125 135 162 165 167 180 191 198 188 211 229 221 217 229 234 213 199 199 215 232 262 274 245 216 223 227 230 246 254 248 222 212 242 226 230 261 259 68 56 305 267 267 356 70 113 148 134 84 117 114 83 78 79 79 76 73 78
144 145 147 150 154 153 149 156 169 170 168 162 128 248 247 203 222 250 112 156 194 154 165 168 164 176 182 189 159 156 173 146 155 186 183 179 190 187 200 211 194 208 214 197 192 192 191 196 169 153 192 225 261 245 185 185 201 222 236 240 251 236 211 236 228 224 257 253 82 50 331 264 265 22 32 42 106 95 108 85 75 80 84 81 79 79 74 73
143 143 145 147 152 157 163 169 172 174 170 182 241 240 250 214 185 85 130 172 151 132 149 151 164 178 176 180 160 156 177 148 158 188 196 202 211 190 201 246 272 270 243 164 194 183 165 160 171 180 170 186 261 263 209 181 192 209 230 228 240 253 244 246 243 245 262 109 92 62 277 257 259 71 29 337 31 85 125 99 84 89 88 82 81 80 76 72
146 146 146 145 149 161 170 172 177 185 180 219 242 233 243 205 124 97 157 143 98 125 143 149 158 168 180 182 151 166 194 140 159 187 178 195 215 193 188 204 230 264 277 236 226 215 195 163 154 325 101 169 259 280 316 311 206 200 243 261 257 271 270 273 279 274 279 153 113 130 235 277 323 104 109 347 38 103 119 113 111 107 96 90 86 77 72 70
151 150 150 144 138 151 166 174 184 195 193 227 245 232 226 150 127 157 146 114 126 145 143 160 168 168 181 177 146 185 244 151 172 201 191 196 207 185 180 174 193 232 256 245 189 227 253 125 77 42 23 357 313 320 318 293 233 164 220 253 268 305 285 286 304 316 317 297 201 185 243 294 31 135 124 52 118 119 118 116 110 106 104 97 85 73 69 69
156 156 157 151 131 127 144 155 172 189 202 236 248 223 142 73 90 129 99 108 155 151 147 165 180 179 176 166 162 184 240 194 179 195 196 202 212 153 297 102 179 225 247 262 172 209 244 114 95 103 97 56 6 21 309 280 273 151 214 236 53 25 298 279 274 263 276 274 245 209 259 250 153 117 38 30 61 88 103 100 85 84 90 84 76 70 68 70
159 160 164 173 167 146 146 146 158 184 219 254 268 72 64 45 33 24 72 107 147 159 166 166 178 198 176 169 173 174 187 190 185 198 186 182 190 12 276 254 205 232 255 274 281 301 281 141 123 157 126 96 42 342 90 284 290 263 250 37 79 67 268 265 263 239 240 258 245 211 266 279 127 72 26 31 42 37 57 69 63 63 68 65 68 71 70 73
160 162 169 195 209 220 200 175 169 202 242 259 206 81 19 50 43 8 329 227 198 191 196 169 157 233 195 175 167 165 180 179 175 194 182 165 163 45 306 248 187 228 262 265 249 64 303 239 132 154 288 121 174 240 177 132 245 303 334 15 265 267 252 223 256 267 258 266 268 208 251 312 30 39 15 20 24 358 16 59 55 44 55 56 64 70 71 74
158 160 166 200 209 205 190 176 192 234 251 252 128 109 13 54 57 21 309 194 192 197 203 137 138 222 213 174 151 157 190 197 169 184 200 176 143 68 350 312 196 242 249 239 241 78 305 270 151 139 270 217 198 239 252 152 152 211 244 220 247 302 300 279 275 284 283 277 283 285 251 53 43 15 356 1 2 352 1 51 49 37 48 53 57 63 65 68
162 165 145 168 183 173 167 173 210 241 245 260 77 87 64 54 62 61 93 188 219 237 211 141 160 179 162 146 146 155 194 219 186 188 195 155 137 104 55 355 298 303 185 206 236 152 192 270 255 144 171 238 233 8 342 340 286 247 247 248 263 282 279 286 275 273 286 280 277 282 275 66 49 10 359 2 1 2 12 43 53 46 50 53 54 57 59 62
176 171 127 159 166 149 162 190 219 246 211 104 86 78 67 12 53 75 90 131 90 25 55 102 125 137 139 153 157 156 178 194 193 199 171 155 213 104 52 5 309 299 165 194 223 234 218 270 273 250 216 231 76 63 28 9 355 323 318 320 306 286 272 270 254 218 259 280 291 284 277 66 44 10 13 12 12 26 37 54 61 56 54 55 56 56 56 58
202 155 133 171 158 140 193 220 180 235 99 101 90 64 50 339 37 75 75 84 88 71 73 76 67 79 106 107 126 153 165 164 182 198 137 76 50 43 27 4 319 270 233 213 122 67 312 284 266 285 340 50 93 97 11 354 347 327 348 349 310 306 304 287 286 291 261 264 287 277 269 66 40 21 38 39 38 43 49 58 64 61 58 57 57 57 56 56
179 113 138 174 153 158 244 206 139 146 85 100 99 72 68 49 54 66 53 46 60 63 71 72 52 58 70 63 119 155 150 103 130 122 114 100 74 48 13 3 334 261 253 244 119 111 251 255 254 257 85 117 141 158 223 253 266 264 224 29 335 332 346 319 317 321 280 268 279 267 260 74 49 35 51 58 58 57 58 60 61 62 60 56 55 55 54 54
117 107 133 169 140 259 264 158 131 122 101 114 114 94 83 62 47 51 49 42 41 44 69 70 48 52 66 56 98 133 137 342 142 115 106 127 94 52 18 9 358 318 324 351 69 145 228 225 228 236 222 192 188 202 204 201 235 265 316 46 350 332 332 309 293 278 273 302 319 285 279 78 65 52 62 66 66 65 65 65 62 60 58 55 54 53 52 51
128 113 119 133 96 311 308 45 95 118 118 117 103 91 93 78 51 48 57 56 48 44 67 73 48 54 80 96 100 102 42 324 132 148 155 134 117 76 24 13 19 35 31 15 8 287 277 247 237 254 260 260 259 271 274 237 264 283 240 191 306 326 321 307 292 274 277 313 301 284 278 118 114 86 72 66 64 64 66 68 66 61 59 57 56 54 52 50
156 141 136 139 125 106 95 63 55 113 120 112 94 75 87 101 80 50 52 59 56 54 65 72 53 63 88 102 107 97 72 40 91 153 160 133 121 91 29 8 31 41 38 29 343 273 264 237 239 265 275 278 286 304 351 294 279 279 262 237 242 298 305 298 284 281 308 314 283 296 100 138 132 92 77 66 61 64 66 68 68 65 62 61 60 58 55 51
193 146 130 138 131 128 126 113 69 78 84 80 78 55 78 104 106 63 50 53 55 57 65 64 51 54 63 56 91 88 72 81 104 124 122 81 101 105 92 69 36 26 23 27 299 275 252 230 211 234 256 269 293 295 170 244 267 279 281 268 260 263 275 282 282 307 338 308 288 5 87 144 120 84 79 74 72 75 73 73 72 69 64 61 60 56 52 47
171 100 70 116 129 127 123 102 61 81 88 75 77 90 97 101 98 75 64 69 62 35 36 68 58 52 49 25 350 53 59 134 130 101 78 22 358 224 172 153 96 14 355 337 6 331 273 255 203 224 249 241 213 219 209 236 259 269 272 274 279 274 271 278 290 324 325 292 294 50 94 119 102 93 96 96 98 90 81 78 74 66 59 52 46 41 38 36
131 112 103 114 90 74 81 81 90 101 89 72 74 77 86 93 90 73 49 63 75 37 18 72 67 47 45 26 358 27 29 357 97 70 37 355 342 305 253 173 137 46 4 353 23 16 294 272 224 241 258 241 216 211 220 239 245 244 249 255 268 279 287 289 300 321 300 282 35 93 106 98 89 106 117 114 110 98 88 81 69 57 48 37 29 27 27 28
150 138 133 121 99 83 83 100 129 121 95 70 87 76 69 84 89 83 43 19 59 55 36 76 80 51 43 37 25 46 33 1 353 17 359 334 331 319 307 343 64 16 355 347 16 43 268 273 250 251 262 251 226 211 224 240 244 247 245 226 231 251 252 258 272 270 242 216 136 131 122 107 112 130 130 131 121 105 83 53 43 33 23 18 16 23 31 31
154 145 140 127 102 66 75 106 136 139 115 91 100 102 94 89 86 92 74 36 34 56 56 81 92 66 51 53 46 44 25 352 327 325 323 311 313 323 324 340 341 328 326 337 351 281 247 266 247 235 260 262 228 211 223 230 241 252 244 218 217 240 248 254 248 245 264 235 183 183 166 141 159 157 150 149 134 99 27 9 4 0 6 11 15 26 38 38
140 136 129 121 107 49 110 133 165 160 108 71 78 99 97 103 101 96 91 66 49 52 53 65 83 23 71 74 43 18 351 326 312 307 302 292 290 288 280 290 303 298 297 310 305 272 258 271 259 241 260 267 214 201 218 224 243 255 237 185 183 199 194 152 111 153 271 261 230 233 127 129 155 171 170 161 198 331 351 352 339 352 8 16 24 32 41 43